User: anonymous   Login
Location: Unspecified
(0.0000°N, 0.0000°E)
Time: 08:58:30
(UTC+00:00)
Language:

BEESAT 3 - Orbit

View from above orbital plane
View from above orbital plane
View from above satellite
View from above satellite

Ground track
Ground track

The orbit data is extracted from the following two-line orbital elements,

1 39134U 13015E   18111.91294549 +.00001988 +00000-0 +10368-3 0  9992
2 39134 064.8635 308.9272 0019293 218.5945 141.3804 15.19018573275974
Epoch (UTC): 21 April 2018 21:54:38
Eccentricity: 0.0019293
inclination: 64.8635°
perigee height: 495 km
apogee height: 522 km
right ascension of ascending node: 308.9272°
argument of perigee: 218.5945°
revolutions per day: 15.19018573
mean anomaly at epoch: 141.3804°
orbit number at epoch: 27597

The dashed part of the orbit path shows where the satellite is in the earth's shadow,  

DLR